Location: Bailleul
(50.3375°N, 2.8513°E)
Time: 21:04:33
(UTC+00:00)

SPOT 5 - Pass Details

Date: 19 April 2021
Orbit: 624 x 814 km, 98.2° (Epoch: 18 May)

Event Time Altitude Azimuth Distance (km) Brightness Sun altitude
Exits shadow 22:07:44 31° 237° (WSW) 1,171 3.8 -24.4°
Maximum altitude 22:08:45 35° 264° (W) 1,096 3.9 -24.5°
Drops below altitude 10° 22:13:07 10° 331° (NNW) 2,187 6.4 -24.8°
Sets 22:15:38 0° 340° (NNW) 3,146 7.6 -25.0°
